[[{"header":{"parameterUnit":"m.s-1","parameterCategory":1,"la1":30.2991,"la2":30.254,"lo1":-89.0895,"lo2":-89.0444,"dy":0.0017,"dx":0.0017,"nx":28,"ny":28,"refTime":"2025-09-03T21:00:00:Z","depth":0,"parameterNumber":2,"parameterNumberName":"U-component_of_WINDS"},"data":[0,0,0,0,0,0,0,0,0,0,0,0,0,0,0,0,0,0,0,0,0,0,0,0,0,0,0,0,0,0,0,0,0,0,0,0,0,0,0,0,0,0,0,0,0,0,0,0,0,0,0,0,0,0,0,0,0,0,2.2638,2.2638,0,2.2649,2.2649,2.2649,2.2604,2.2602,2.2601,2.26,2.2609,2.2611,2.2612,0,0,0,0,0,0,0,0,0,0,0,0,0,2.2575,2.2576,2.2638,2.2638,2.2638,2.2649,2.2649,2.2649,2.2604,2.2602,2.2601,2.2599,2.2609,2.2611,2.2612,0,0,0,0,0,0,0,0,0,0,0,0,0,2.2596,2.2577,2.2638,2.2617,2.2615,2.2649,2.2649,2.2649,2.2604,2.2602,2.26,2.2598,2.2608,2.2611,2.2613,2.2666,0,0,2.262,2.2621,0,0,0,0,0,0,0,0,2.2595,2.2598,2.262,2.2619,2.2617,2.2623,2.263,2.2655,2.2605,2.2609,2.26,2.2598,2.2615,2.2617,2.2623,2.2667,2.2667,2.262,2.2621,2.2622,2.2623,0,0,0,0,0,0,0,2.2593,2.2597,2.2642,2.262,2.2618,2.2606,2.2607,2.2635,2.2623,2.2608,2.2605,2.2607,2.2614,2.2621,2.2623,2.2667,2.262,2.2622,2.2623,2.2624,2.275,2.2752,0,0,0,0,0,0,2.2595,2.2596,2.2642,2.2643,2.2601,2.2609,2.261,2.2623,2.2623,2.2621,2.2608,2.2605,2.2618,2.2621,2.2623,2.2682,2.2622,2.2624,2.2625,2.2748,2.275,2.2753,0,0,0,0,0,0,2.2594,2.2599,2.2641,2.2619,2.2623,2.2612,2.2627,2.2624,2.2631,2.2623,2.262,2.2618,2.2617,2.262,2.2655,2.2682,2.2625,2.2627,2.2746,2.2749,2.2752,2.2803,0,0,0,0,0,0,2.2592,2.2599,2.2621,2.2619,2.2624,2.2674,2.2629,2.2626,2.2635,2.263,2.2631,2.2629,2.2616,2.2652,2.2657,2.2684,2.2629,2.2743,2.2747,2.2751,2.2799,2.2807,2.2815,0,0,0,0,0,2.259,2.2636,2.2622,2.2628,2.2651,2.2676,2.2679,2.2662,2.2638,2.2658,2.2652,2.2629,2.2679,2.2656,2.2661,2.269,2.2741,2.2746,2.275,2.2795,2.2806,2.2815,0,0,0,0,0,0,2.2641,2.2635,2.262,2.2667,2.2672,2.2668,2.2694,2.2675,2.2687,2.2682,2.2661,2.2661,2.2698,2.2698,2.2672,2.2739,2.2705,2.2711,2.2738,2.2748,2.2756,2.2754,2.2631,0,0,0,0,0,2.2657,2.2679,2.2673,2.2714,2.2718,2.2705,2.2716,2.2702,2.2707,2.2709,2.2706,2.271,2.2726,2.2737,2.2752,2.2799,2.2796,2.2821,2.2829,2.2835,2.284,2.286,2.287,2.2767,2.2767,2.2767,0,0,2.2692,2.2692,2.2707,2.2724,2.2727,2.2748,2.2708,2.2733,2.2747,2.2713,2.2744,2.2742,2.2745,2.2785,2.2803,2.2786,2.2868,2.2841,2.2847,2.2847,2.2866,2.2876,2.2884,2.2771,2.277,2.2769,0,0,2.2765,2.2768,2.2801,2.2804,2.2808,2.2799,2.2807,2.2805,2.2802,2.2833,2.2807,2.2823,2.2853,2.2855,2.286,2.293,2.2908,2.2936,2.2977,2.2997,2.3005,2.3012,2.3033,2.3042,2.2941,2.2941,2.2941,0,2.2807,2.2838,2.2821,2.2846,2.2853,2.2822,2.2854,2.2857,2.2866,2.2871,2.2852,2.2885,2.2886,2.2924,2.294,2.2947,2.2953,2.2935,2.3005,2.3012,2.3018,2.3038,2.3047,2.2944,2.2943,2.2943,2.2943,0,2.2888,2.291,2.2936,2.2943,2.2954,2.2983,2.2967,2.2979,2.2964,2.2957,2.2987,2.2986,2.2998,2.3007,2.2994,2.3042,2.3031,2.3009,2.2975,2.3031,2.305,2.3058,2.2948,2.2947,2.2946,2.2945,0,0,2.2994,2.2989,2.2999,2.3,2.3001,2.3016,2.3042,2.3054,2.3063,2.307,2.3088,2.3112,2.3091,2.3097,2.3083,2.3101,2.3152,2.3077,2.3076,2.3088,2.3201,2.3215,2.3224,2.3138,2.314,2.3141,2.3199,0,2.3062,2.3106,2.3089,2.3134,2.3151,2.3121,2.3143,2.3145,2.3138,2.315,2.3143,2.3158,2.3131,2.3134,2.3151,2.3142,2.3174,2.3138,2.3153,2.3154,2.315,2.3234,2.325,2.3305,2.3207,2.3208,2.3209,0,2.3148,2.3156,2.3202,2.3196,2.3203,2.3223,2.323,2.3244,2.3244,2.3237,2.3242,2.3223,2.3246,2.3213,2.3242,2.3218,2.3223,2.3219,2.3221,2.322,2.3183,2.3232,2.3323,2.333,2.3221,2.322,2.3219,0,2.3216,2.3239,2.3268,2.3271,2.3265,2.3279,2.3278,2.3276,2.3282,2.3289,2.3292,2.3301,2.3305,2.3312,2.3295,2.3273,2.3325,2.3291,2.3317,2.3317,2.3328,2.3327,2.3417,2.3336,2.3336,2.3336,2.3336,0,2.3293,2.3321,2.3298,2.3316,2.3345,2.3325,2.3355,2.3349,2.3348,2.3362,2.3337,2.3352,2.333,2.3341,2.3328,2.3352,2.3355,2.3348,2.3344,2.3349,2.3349,2.335,2.3344,2.3338,2.3338,2.3337,2.3337,0,2.3373,2.3359,2.3388,2.338,2.3378,2.34,2.3392,2.3407,2.3397,2.3416,2.3419,2.3404,2.3416,2.34,2.3411,2.3402,2.3433,2.3424,2.3433,2.3429,2.3454,2.3451,2.3546,2.3556,2.3472,2.3472,2.3473,0,2.3421,2.3442,2.3435,2.3443,2.3442,2.3456,2.3461,2.3441,2.3448,2.3448,2.3462,2.3472,2.3478,2.3498,2.3487,2.3494,2.3483,2.3516,2.3484,2.3487,2.348,2.3477,2.3478,2.3522,2.3523,2.3524,2.3525,0,2.3507,2.3499,2.3508,2.3514,2.3522,2.3526,2.3528,2.3536,2.3515,2.3523,2.3534,2.3539,2.3549,2.3557,2.3561,2.3558,2.3536,2.3535,2.3541,2.3544,2.3547,2.3542,2.3447,2.3532,2.3532,2.3531,2.3531,2.353,2.3571,2.3586,2.3582,2.3593,2.3592,2.3594,2.3606,2.3597,2.3606,2.3612,2.36,2.3613,2.3609,2.3612,2.361,2.3619,2.3605,2.3614,2.3616,2.3618,2.362,2.3548,2.362,2.362,2.362,2.362,2.362,0,2.3652,2.3648,2.3658,2.366,2.3668,2.3648,2.3648,2.3655,2.3667,2.3666,2.3672,2.3683,2.369,2.3679,2.3684,2.3693,2.3683,2.3695,2.3692,2.3691,2.3635,2.3627,2.3702,2.3702,2.3702,2.3702,2.3702,2.3702,2.3696,2.3719,2.3709,2.3731,2.3726,2.3738,2.374,2.374,2.3738,2.3752,2.3757,2.375,2.3744,2.3747,2.3752,2.3749,2.375,2.3764,2.3757,2.3704,2.3696,2.3688,2.3681,2.3766,2.3766,2.3813,2.3813,2.3813]},{"header":{"parameterUnit":"m.s-1","parameterCategory":1,"la1":30.2991,"la2":30.254,"lo1":-89.0895,"lo2":-89.0444,"dy":0.0017,"dx":0.0017,"nx":28,"ny":28,"refTime":"2025-09-03T21:00:00:Z","depth":0,"parameterNumber":3,"parameterNumberName":"V-component_of_WINDS"},"data":[0,0,0,0,0,0,0,0,0,0,0,0,0,0,0,0,0,0,0,0,0,0,0,0,0,0,0,0,0,0,0,0,0,0,0,0,0,0,0,0,0,0,0,0,0,0,0,0,0,0,0,0,0,0,0,0,0,0,0.7087,0.7088,0,0.7182,0.7183,0.7184,0.72,0.7199,0.7198,0.7197,0.7294,0.7297,0.73,0,0,0,0,0,0,0,0,0,0,0,0,0,0.6916,0.6919,0.7087,0.7088,0.7089,0.7182,0.7183,0.7184,0.72,0.7199,0.7198,0.7197,0.7293,0.7296,0.73,0,0,0,0,0,0,0,0,0,0,0,0,0,0.6999,0.692,0.7086,0.7108,0.7111,0.7181,0.7183,0.7185,0.72,0.7199,0.7198,0.7197,0.7291,0.7296,0.7301,0.7356,0,0,0.7316,0.7318,0,0,0,0,0,0,0,0,0.6994,0.7005,0.7104,0.7107,0.711,0.7178,0.7158,0.7242,0.72,0.7166,0.7197,0.7196,0.7256,0.7264,0.7284,0.7361,0.7365,0.7317,0.732,0.7322,0.7323,0,0,0,0,0,0,0,0.6988,0.7001,0.7124,0.7105,0.7109,0.7112,0.7123,0.7174,0.7217,0.7169,0.7171,0.7182,0.7257,0.7279,0.7287,0.7366,0.7317,0.7321,0.7324,0.7326,0.749,0.7492,0,0,0,0,0,0,0.6979,0.6996,0.7121,0.7127,0.7048,0.7116,0.7128,0.7157,0.7216,0.7224,0.7183,0.7182,0.7272,0.7281,0.729,0.7358,0.7322,0.7326,0.7329,0.7489,0.7491,0.7492,0,0,0,0,0,0,0.6975,0.699,0.7117,0.7062,0.7078,0.712,0.7153,0.716,0.7182,0.7226,0.7234,0.7197,0.7271,0.7283,0.7339,0.7361,0.7329,0.7333,0.7487,0.749,0.7491,0.7493,0,0,0,0,0,0,0.697,0.6988,0.7011,0.7062,0.7081,0.7166,0.7155,0.7162,0.719,0.7191,0.7242,0.725,0.7271,0.7332,0.7344,0.7367,0.7337,0.7486,0.7488,0.7491,0.7491,0.7495,0.7498,0,0,0,0,0,0.6964,0.7008,0.7012,0.7027,0.711,0.7167,0.7178,0.7202,0.7192,0.7214,0.7243,0.7248,0.7356,0.7337,0.7352,0.7376,0.7484,0.7488,0.7491,0.749,0.7494,0.7498,0,0,0,0,0,0,0.6958,0.7015,0.702,0.7082,0.7119,0.717,0.7199,0.7206,0.7247,0.7246,0.7273,0.7284,0.7339,0.7363,0.7341,0.7432,0.742,0.7426,0.7414,0.7419,0.7422,0.7415,0.7341,0,0,0,0,0,0.6963,0.7006,0.7053,0.7103,0.7121,0.7157,0.7182,0.7197,0.7237,0.7253,0.7286,0.7324,0.7366,0.7394,0.7436,0.7495,0.7505,0.7519,0.7522,0.7525,0.753,0.7561,0.7567,0.7502,0.7502,0.7502,0,0,0.6976,0.7012,0.7037,0.7102,0.7133,0.7175,0.717,0.7215,0.7246,0.726,0.7315,0.734,0.7384,0.7441,0.7468,0.7463,0.7549,0.7529,0.753,0.7534,0.7565,0.7571,0.7576,0.7505,0.7504,0.7504,0,0,0.702,0.7052,0.7097,0.7127,0.7174,0.7197,0.7207,0.7256,0.7273,0.7328,0.7339,0.7376,0.7449,0.7479,0.7505,0.7557,0.7563,0.757,0.7588,0.7618,0.7623,0.7628,0.7646,0.7652,0.7575,0.7575,0.7575,0,0.703,0.7094,0.7118,0.7163,0.719,0.7204,0.7248,0.7277,0.7335,0.7353,0.7347,0.7437,0.7468,0.7532,0.7544,0.7565,0.7576,0.7565,0.7621,0.7626,0.763,0.7648,0.7654,0.7575,0.7575,0.7575,0.7575,0,0.7103,0.7147,0.7177,0.7232,0.7263,0.7307,0.7337,0.7365,0.7377,0.74,0.7455,0.7492,0.7541,0.7557,0.7569,0.7622,0.7617,0.7615,0.7604,0.7636,0.7653,0.766,0.7576,0.7576,0.7576,0.7576,0,0,0.7147,0.7214,0.7224,0.7249,0.73,0.7334,0.7378,0.7426,0.7449,0.7487,0.7524,0.7584,0.7582,0.7611,0.7626,0.7652,0.769,0.7647,0.7649,0.7653,0.7749,0.775,0.7758,0.7694,0.7696,0.7697,0.7745,0,0.7197,0.7276,0.7298,0.7365,0.7405,0.7418,0.7455,0.749,0.7512,0.7549,0.7573,0.7615,0.761,0.7627,0.7654,0.768,0.771,0.7677,0.7728,0.7729,0.7716,0.7766,0.7768,0.7812,0.7752,0.7753,0.7754,0,0.7266,0.7306,0.7376,0.7421,0.7438,0.7472,0.7516,0.7552,0.7591,0.7605,0.7635,0.7647,0.7692,0.7677,0.7738,0.7715,0.7737,0.7753,0.7755,0.7761,0.7744,0.7773,0.7827,0.7833,0.7765,0.7764,0.7763,0,0.7291,0.7361,0.7412,0.7433,0.7486,0.7509,0.7532,0.757,0.7597,0.7635,0.7652,0.7695,0.7718,0.775,0.7773,0.7761,0.7832,0.7819,0.7844,0.7843,0.7859,0.7857,0.7917,0.7873,0.7873,0.7873,0.7873,0,0.7344,0.7386,0.7424,0.7455,0.7502,0.7526,0.7572,0.7595,0.7628,0.7664,0.7677,0.7709,0.7738,0.7773,0.7791,0.7838,0.7849,0.7861,0.7865,0.786,0.7858,0.7874,0.7872,0.7874,0.7874,0.7874,0.7873,0,0.7379,0.7406,0.7462,0.7507,0.752,0.7552,0.7591,0.7621,0.7642,0.7686,0.7698,0.7732,0.7775,0.78,0.7855,0.7867,0.7918,0.7921,0.7905,0.7907,0.793,0.7927,0.8001,0.8012,0.7961,0.7962,0.7962,0,0.7412,0.7444,0.7493,0.7517,0.754,0.758,0.7606,0.7631,0.7658,0.7703,0.7727,0.7771,0.7807,0.7874,0.7903,0.7944,0.7948,0.7971,0.7954,0.7947,0.7948,0.7945,0.7948,0.7974,0.7975,0.7975,0.7975,0,0.7465,0.7477,0.7515,0.7557,0.7589,0.7623,0.7658,0.7677,0.7706,0.7736,0.7779,0.7807,0.7862,0.7904,0.7947,0.797,0.7977,0.798,0.7988,0.7983,0.7971,0.7977,0.7912,0.7978,0.7978,0.7978,0.7978,0.7978,0.75,0.7529,0.7567,0.7609,0.7637,0.7668,0.7698,0.7723,0.776,0.7806,0.7818,0.7863,0.7899,0.7958,0.7981,0.8016,0.8013,0.8024,0.8027,0.8029,0.8029,0.7966,0.8024,0.8024,0.8024,0.8024,0.8024,0,0.7554,0.7578,0.7616,0.7663,0.7696,0.7699,0.7737,0.7763,0.7803,0.7837,0.7871,0.7921,0.7961,0.7993,0.8034,0.8056,0.806,0.8066,0.8064,0.8069,0.8031,0.802,0.8062,0.8062,0.8062,0.8062,0.8062,0.8062,0.7586,0.7634,0.765,0.7712,0.7736,0.7781,0.7802,0.783,0.7856,0.7911,0.7945,0.7965,0.7997,0.804,0.8077,0.8085,0.8099,0.8104,0.8113,0.8076,0.8072,0.8068,0.8058,0.8107,0.8107,0.8148,0.8149,0.8149]}]]